Retour au catalogue

STARLINK-5043

ActifCommunicationsVLEO
NORAD 53894·PAYLOAD·🇺🇸 United States

Lancé Sep 24, 2022 depuis Cape Canaveral Space Force Station

Loading…

Prochains Passages (prochaines 24 heures)

TLE

FraisSource: CelesTrak SupGP

Époque: Sep 15, 2026, 02:02 UTC

1 53894C 22119J   26258.08520833 -.00013871  00000+0 -44613-3 0  2586
2 53894  53.1588 171.7903 0001346  87.9467  65.6926 15.31703257    13

Suivez STARLINK-5043 en temps réel avec AllMySat

Download on the App Store